Location: Ferchesar
(52.6477°N, 12.4298°E)
Time: 21:56:49
(UTC+01:00)

TIGRISAT - Pass Details

Date: 26 October 2021
Orbit: 603 x 689 km, 97.7° (Epoch: 30 November)

Event Time Altitude Azimuth Distance (km) Brightness Sun altitude
Rises 19:07:21 0° 26° (NNE) 2,969 ? -12.0°
Enters shadow 19:08:57 - 35° (NE) 2,429 ? -12.3°
Exits shadow 19:17:27 - 142° (SE) 2,378 ? -13.6°
Sets 19:18:56 0° 150° (SSE) 2,877 ? -13.8°
